TimeEST,TemperatureF,Dew PointF,Humidity,Sea Level PressureIn,VisibilityMPH,Wind Direction,Wind SpeedMPH,Gust SpeedMPH,PrecipitationIn,Events,Conditions,WindDirDegrees,DateUTC
12:04 AM,15.8,8.6,73,29.82,8.0,West,13.8,-,N/A,,Overcast,270,2013-02-01 05:04:00
12:23 AM,15.8,8.6,73,29.83,6.0,West,15.0,-,0.00,Snow,Light Snow,280,2013-02-01 05:23:00
12:53 AM,15.1,8.1,74,29.88,10.0,West,16.1,-,0.00,,Overcast,280,2013-02-01 05:53:00
1:53 AM,14.0,8.1,77,29.90,10.0,West,15.0,-,N/A,,Partly Cloudy,280,2013-02-01 06:53:00
2:27 AM,14.0,8.6,79,29.87,10.0,WNW,12.7,-,0.00,Snow,Light Snow,290,2013-02-01 07:27:00
2:37 AM,14.0,8.6,79,29.87,9.0,WNW,15.0,-,0.00,,Scattered Clouds,290,2013-02-01 07:37:00
2:53 AM,14.0,9.0,80,29.94,10.0,West,15.0,-,0.00,,Mostly Cloudy,280,2013-02-01 07:53:00
3:04 AM,14.0,8.6,79,29.89,9.0,West,16.1,-,N/A,,Mostly Cloudy,280,2013-02-01 08:04:00
3:30 AM,14.0,8.6,79,29.89,10.0,West,12.7,-,N/A,,Overcast,280,2013-02-01 08:30:00
3:53 AM,14.0,9.0,80,29.96,10.0,West,12.7,-,N/A,,Mostly Cloudy,270,2013-02-01 08:53:00
4:53 AM,12.9,8.1,81,29.99,10.0,West,13.8,-,N/A,,Partly Cloudy,270,2013-02-01 09:53:00
5:09 AM,12.2,8.6,85,29.94,10.0,West,11.5,-,N/A,,Mostly Cloudy,270,2013-02-01 10:09:00
5:49 AM,12.2,8.6,85,29.96,10.0,West,15.0,-,N/A,,Mostly Cloudy,280,2013-02-01 10:49:00
5:53 AM,12.9,7.0,77,30.02,10.0,West,15.0,-,N/A,,Mostly Cloudy,280,2013-02-01 10:53:00
6:53 AM,12.9,7.0,77,30.06,10.0,West,16.1,-,N/A,,Partly Cloudy,280,2013-02-01 11:53:00
7:53 AM,12.9,6.1,74,30.10,10.0,West,12.7,-,N/A,,Scattered Clouds,270,2013-02-01 12:53:00
8:46 AM,14.0,6.8,73,30.06,7.0,West,15.0,-,N/A,,Partly Cloudy,280,2013-02-01 13:46:00
8:53 AM,14.0,7.0,74,30.12,10.0,West,17.3,-,N/A,,Scattered Clouds,270,2013-02-01 13:53:00
9:42 AM,15.8,6.8,68,30.09,10.0,West,18.4,-,N/A,,Mostly Cloudy,280,2013-02-01 14:42:00
9:53 AM,15.1,7.0,70,30.15,10.0,West,19.6,-,N/A,,Mostly Cloudy,280,2013-02-01 14:53:00
10:53 AM,16.0,5.0,62,30.17,10.0,West,18.4,-,N/A,,Mostly Cloudy,280,2013-02-01 15:53:00
11:03 AM,17.6,5.0,58,30.12,10.0,WNW,17.3,25.3,N/A,,Mostly Cloudy,290,2013-02-01 16:03:00
11:53 AM,16.0,3.9,59,30.19,10.0,WNW,17.3,-,N/A,,Overcast,290,2013-02-01 16:53:00
12:53 PM,17.1,6.1,62,30.19,6.0,West,19.6,-,0.00,Snow,Light Snow,270,2013-02-01 17:53:00
1:53 PM,17.1,5.0,59,30.19,10.0,West,15.0,21.9,0.00,,Mostly Cloudy,270,2013-02-01 18:53:00
2:53 PM,17.1,7.0,65,30.19,7.0,West,13.8,-,0.00,Snow,Light Snow,270,2013-02-01 19:53:00
3:02 PM,15.8,8.6,73,30.14,2.5,West,17.3,25.3,0.00,Snow,Light Snow,260,2013-02-01 20:02:00
3:09 PM,17.6,8.6,68,30.14,7.0,West,10.4,23.0,0.00,Snow,Light Snow,260,2013-02-01 20:09:00
3:53 PM,16.0,3.9,59,30.22,9.0,West,19.6,25.3,0.00,Snow,Light Snow,270,2013-02-01 20:53:00
4:53 PM,16.0,5.0,62,30.22,10.0,WSW,13.8,18.4,0.00,,Overcast,240,2013-02-01 21:53:00
5:53 PM,14.0,6.1,71,30.22,6.0,SW,13.8,20.7,0.00,Snow,Light Snow,230,2013-02-01 22:53:00
6:46 PM,12.2,3.2,67,30.18,10.0,WSW,18.4,23.0,0.00,,Overcast,250,2013-02-01 23:46:00
6:53 PM,12.9,3.0,65,30.24,10.0,WSW,17.3,23.0,0.00,,Overcast,250,2013-02-01 23:53:00
7:53 PM,10.9,1.0,64,30.25,10.0,WSW,13.8,-,N/A,,Overcast,240,2013-02-02 00:53:00
8:49 PM,8.6,-0.4,67,30.20,10.0,WSW,12.7,21.9,N/A,,Scattered Clouds,240,2013-02-02 01:49:00
8:53 PM,9.0,-0.9,64,30.26,10.0,WSW,12.7,20.7,N/A,,Scattered Clouds,240,2013-02-02 01:53:00
9:53 PM,9.0,-0.0,67,30.25,10.0,WSW,12.7,20.7,N/A,,Overcast,240,2013-02-02 02:53:00
10:53 PM,9.0,1.0,70,30.23,10.0,SSW,9.2,-,N/A,,Overcast,210,2013-02-02 03:53:00
11:53 PM,10.0,1.9,70,30.22,10.0,SW,12.7,21.9,N/A,,Overcast,220,2013-02-02 04:53:00